STARLINK-34799

Last updated on Tue Sep 16 2025 00:02:08 GMT+0000 (Coordinated Universal Time)

1 65472U 25195Q 25257.83617774 -.00393732 00000+0 -24073-2 0 9996 2 65472 53.1566 1.1389 0000684 221.7486 138.3483 15.77706571 2965
UTC large
Height (km)
Speed (km/s)
/
Latitude / Longitude
Inclination (degrees)
Orbital Period (minutes)
Azimuth
Elevation
Range (km)
Doppler Factor

Next 0 passes for location: London (51.5072 / 0.1276)

Sorry there are no passes over London.